Location: Austin
(30.3000°N, 97.7500°W)
Time: 00:37:40
(UTC-06:00)

Cosmos 1331 Rocket - Pass Details

Date: 04 November 2025
Orbit: 745 x 773 km, 74.0° (Epoch: 15 November)

Event Time Altitude Azimuth Distance (km) Brightness Sun altitude
Rises 18:21:48 0° 343° (NNW) 3,209 7.3 -9.4°
Reaches altitude 10° 18:24:11 10° 343° (NNW) 2,277 6.5 -9.9°
Maximum altitude 18:29:21 87° 257° (WSW) 753 4.0 -10.9°
Drops below altitude 10° 18:34:27 10° 166° (SSE) 2,253 6.4 -12.0°
Sets 18:36:48 0° 166° (SSE) 3,171 7.2 -12.5°
